SCOUT B DEB, 2498

Orbit data source: Space-Track

SCOUT B DEB, 2498 is space debris in LEO originally from a launch on Fri, 10 Jun 1966 UTC launched from the Wallops Island (WLPIS). Debris objects in space refer to the collection of defunct objects orbiting the Earth. Examples of debris include non-operational satellites, rocket bodies, and fragments generated from explosions, collisions, or faulty payload assembly.

Loading next visibility...
Identifier
2498, 1966-052C
Orbit
LEO
Country
Flag of USUS
Related business
Manufacturer
Unknown
Mission
Spacecraft
Bus & Motor
Unknown
Mass
Unknown
Launch date (UTC)
1966-06-10 (60 years ago)
Launch vehicle
Unknown
Launch site
Wallops Island (WLPIS)
Object type
Payload
Rocket body
Debris
Shape & HBR
Unknown shape, 0.1 m
Radar Cross Section
Small (<0.1 m²)

Expand to show TLE details & history
Last TLE update: 3 days ago

TLE from 3 days ago
0 SCOUT B DEB
1 02498U 66052C   26133.39007712  .00000103  00000-0  12191-3 0  9997
2 02498  40.6335 243.6768 2067793 337.8382  14.4199 10.56406366473188
Epoch: 2026-05-13T09:21Z
TLE epoch observation values (Epoch: 2026-05-13T09:21:42.663Z)
Latitude
-0.00008°
Longitude
-127.90184°
Altitude
670.984 km
Speed
8.228 km/s
True Right ascension
16h 14m 42s
True Declination
0° 00' 00"
Sunlit
Object was in full shadow at epoch
Visualization orbit readout
Latitude
Unknown
Longitude
Unknown
Altitude
Unknown
Speed
Unknown
Apparent Right ascension
Unknown
Apparent Declination
Unknown
Sunlit
N/A
Visualization observer readout
Local Sidereal Time
19:33:18
Azimuth
Unknown
Elevation
Unknown
Doppler factor
Unknown
Orbital elements
Apogee altitude
4,212.104 km
Perigee altitude
582.869 km
Semi-major axis
8,775.623 km
Eccentricity
0.20678
Inclination
40.6335°
RAAN
243.6768°
Arg. of periapsis
337.8382°
True anomaly
22.23064°
Mean anomaly
14.4199°
Eccentric anomaly
18.10083°
Mean motion
2.64014 °/min
Orbital period
136.36 mins
BSTAR
0.00012191
Loading maneuver chart data...
Computing Atmospheric mass density...
Loading historical data...
Loading historical data...
Loading historical data...
Loading historical data...
Loading historical data...
Loading historical data...
Loading historical data...
Other satellites on launch #52 in the year 1966 (1966-06-10 UTC)

Documentation

Showing up to 5 results
|